sat.trackr.live / text

‹ back to catalog

QIANFAN-155

NORAD 69114 · 2026-108L

PAYLOAD ACTIVE UNKNOWN

§ Identity

Operator
Country
PRC
Launch date
2026-05-17
Launch site
WSC
Launch vehicle
Mass (kg)
RCS (m²)

External: N2YO · Heavens-Above · Gunter

§ Orbital elements

Epoch: 2026-09-20T02:42:18.112896Z

Period
106.59 min
Inclination
89.0194°
Eccentricity
0.0002283
Mean motion
13.51023809 rev/d
Perigee alt
1,066.8 km
Apogee alt
1,070.2 km
Semi-major
7,446.6 km
B*
1.6873e-4
RAAN
12.5467°
Arg perigee
105.1918°
Mean anomaly
254.9486°
Rev number
1,726

§ Raw data

QIANFAN-1551 69114U 26108L   26263.11270964  .00000121  00000+0  16873-3 0  99982 69114  89.0194  12.5467 0002283 105.1918 254.9486 13.51023809 17265

JSON: /api/v1/satellites/69114 · /tle

For live sub-satellite position, see the globe view (requires WebGL).

§ Visibility from observer

Set your observer location to see the next 7 days of passes ≥ 10°. The values pass through the URL so the page stays shareable.

No JS? Fill the form by hand. The geolocation button needs JavaScript.